Location: Czekanka
(50.4925°N, 19.2643°E)
Time: 02:09:10
(UTC+00:00)

ADEOS II - Pass Details

Date: 24 September 2024
Orbit: 795 x 798 km, 98.7° (Epoch: 09 October)

Event Time Altitude Azimuth Distance (km) Brightness Sun altitude
Rises 02:26:08 0° 8° (N) 3,312 5.8 -20.3°
Reaches altitude 10° 02:28:41 10° 358° (N) 2,377 4.8 -20.0°
Maximum altitude 02:33:13 31° 299° (WNW) 1,382 3.0 -19.3°
Enters shadow 02:33:59 29° 282° (WNW) 1,419 2.9 -19.2°
